Regional Weather Roundup
Issued by NWS

Home | Current Version | Previous Version | Text Only | Print | Product List | Glossary Off
Versions: 1 2 3 4 5 6 7 8 9 10 11 12 13 14 15 16 17 18 19 20 21 22 23 24 25 26 27 28 29 30 31 32 33 34 35 36 37 38 39 40 41 42 43 44 45 46 47 48 49 50

000
ASUS45 KBOU 270707
RWRCO

WEATHER ROUNDUP FOR COLORADO
NATIONAL WEATHER SERVICE DENVER/BOULDER CO
1200 AM MST THU NOV 27 2014

NOTE: "FAIR" INDICATES FEW OR NO CLOUDS BELOW 12000 FEET WITH NO
SIGNIFICANT WEATHER AND/OR OBSTRUCTIONS TO VISIBILITY.

COZ001>005-013-030-031-270800-
...NORTHWEST COLORADO...

CITY           SKY/WX    TMP DP  RH WIND       PRES   REMARKS
CRAIG          MOCLDY    28  24  85 SE5       30.42R WCI  23
HAYDEN         MOCLDY    30  23  74 E7        30.41S WCI  23
MEEKER         PTCLDY    26  21  81 E5        30.45R WCI  20
MOUNT WERNER   NOT AVBL
STEAMBOAT SPGS MOCLDY    29  28  95 SW3       30.42S
WALDEN         MOCLDY    34  19  55 SW18      30.36S WCI  23
$$

COZ006>008-011-270800-
...WEST CENTRAL VALLEYS...

CITY           SKY/WX    TMP DP  RH WIND       PRES   REMARKS
GRAND JUNCTION CLEAR     30  24  78 E9        30.45R WCI  22
MONTROSE       CLEAR     28  22  78 SE5       30.50R WCI  23
EAGLE          PTCLDY    28  25  86 CALM      30.50S
RIFLE          PTCLDY    25  22  88 CALM      30.49R
DELTA          CLEAR     33  26  76 NE6       30.49R WCI  27
NUCLA          CLEAR     32  25  74 SE8       30.52R WCI  25
$$

COZ017>023-064>068-270800-
...SOUTHWEST COLORADO...

CITY           SKY/WX    TMP DP  RH WIND       PRES   REMARKS
DURANGO        CLEAR     26  19  74 CALM      30.47R
CORTEZ         CLEAR     24  19  81 NE8       30.48R WCI  15
PAGOSA SPRINGS CLEAR     24  19  82 CALM      30.50R
TELLURIDE      NOT AVBL
WOLF CREEK PAS PTCLDY    28   3  34 MISG      30.59R
$$

COZ009-010-012-014-032>034-037-058>063-270800-
...CENTRAL COLORADO...

CITY           SKY/WX    TMP DP  RH WIND       PRES   REMARKS
ASPEN          CLEAR     22  18  85 SW7       30.49R WCI  13
BUENA VISTA    CLEAR     33  19  56 CALM      30.42R
COPPER MTN     PTCLDY    25  19  80 W26G41    30.51S WCI   9
BERTHOUD PASS  NOT AVBL
COTTONWOOD PAS CLEAR     37  10  32 SW5G25    30.44R
GUNNISON       CLEAR     19  14  79 CALM      30.53R
KREMMLING      PTCLDY    32  23  69 W6        30.45R WCI  26
LEADVILLE      PTCLDY    20  12  71 N7        30.48R WCI  11
MONARCH PASS   CLOUDY    19  18  93 MISG      30.59R
SALIDA         CLEAR     43  21  41 SW22G31   30.47S
SUNLIGHT       PTCLDY    27  27 100 CALM      30.54S
WILKERSON PASS PTCLDY    27  12  54 SW3       30.47S
$$

COZ069>075-270800-
...SAN LUIS VALLEY/SANGRE DE CRISTO MOUNTAINS...

CITY           SKY/WX    TMP DP  RH WIND       PRES   REMARKS
ALAMOSA        PTCLDY    17  12  80 W5        30.48R WCI  10
LA VETA PASS   CLEAR     30  19  64 S18G30    30.45R WCI  18
SAGUACHE       CLEAR     32  23  69 NW10      30.49R WCI  24
$$

COZ035-036-038>040-270800-
...NORTHERN COLORADO FRONT RANGE...

CITY           SKY/WX    TMP DP  RH WIND       PRES   REMARKS
DENVER INTL AP PTCLDY    26  22  84 SW7       30.25S WCI  18
DMNS CITY PARK   N/A     26  23  89 S1        30.26R
AURORA         PTCLDY    29  24  83 SE2       30.26S
FRONT RANGE AP PTCLDY    30  27  86 SW5       30.26S WCI  25
ERIE MUNI ARPT PTCLDY    21  20  95 CALM      30.27S
BOULDER MUN AP PTCLDY    27  25  93 NW3       30.26R
CENTENNIAL     PTCLDY    31  23  72 S5        30.25S WCI  26
BROOMFIELD     PTCLDY    27  23  86 N6        30.25F WCI  20
FORT COLLINS   MOCLDY    21  19  93 CALM      30.28R
LONGMONT       MOCLDY    23  20  90 CALM      30.29R
$$

COZ041-046-047-076>085-087-088-270800-
...PIKES PEAK/PALMER DIVIDE AND SOUTHERN FOOTHILLS...

CITY           SKY/WX    TMP DP  RH WIND       PRES   REMARKS
COLO. SPRINGS  PTCLDY    23  20  88 N3        30.33S
A. F. ACADEMY  PTCLDY    20  17  86 N6        30.32R WCI  13
ELLICOTT       NOT AVBL
FALCON         NOT AVBL
FORT CARSON    PTCLDY    23  20  90 NW7       30.31S WCI  14
LIMON          PTCLDY    25  19  78 SE7       30.30F WCI  17
MONUMENT HILL  CLEAR     34  21  60 SW10      30.28S WCI  26
TRINIDAD       CLEAR     30  24  78 W5        30.32S WCI  25
$$

COZ042>045-048>051-090-091-270800-
...NORTHEAST COLORADO...

CITY           SKY/WX    TMP DP  RH WIND       PRES   REMARKS
GREELEY ARPT   MOCLDY    21  16  79 NW5       30.28S WCI  15
AKRON          PTCLDY    21  19  92 SW10      30.25F WCI  10
BURLINGTON     PTCLDY    22  18  85 S13       30.32F WCI  10
WRAY           CLEAR     25  23  94 S7        30.31S WCI  17
STERLING       PTCLDY    21  21 100 SW7       30.27S WCI  13
HOLYOKE        CLEAR     25  21  86 S7        30.31F WCI  17
FORT MORGAN    PTCLDY    22  20  93 CALM      30.27S
$$

COZ086-089-092>099-270800-
...SOUTHEAST COLORADO...

CITY           SKY/WX    TMP DP  RH WIND       PRES   REMARKS
PUEBLO         CLEAR     25  20  81 CALM      30.33S
LA JUNTA       PTCLDY    24  19  81 W6        30.33S WCI  17
LAMAR          CLEAR     22  17  81 E9        30.35R WCI  12
SPRINGFIELD      N/A     26  20  77 SW7       30.34F WCI  18
$$



USA.gov is the U.S. government's official web portal to all federal, state and local government web resources and services.